Miscellaneous Local Product
Issued by NWS Hastings, NE

Home | Current Version | Previous Version | Graphics & Text | Print | Product List | Glossary On
Versions: 1 2 3 4 5 6 7 8 9 10 11 12 13 14 15 16 17 18 19 20 21 22 23 24 25 26 27 28 29 30 31 32 33 34 35 36 37 38 39 40 41 42 43 44 45 46 47 48 49 50
434
AXUS43 KGID 200102
MISGRI

GID CWA HOURLY WEATHER ROUNDUP
NATIONAL WEATHER SERVICE HASTINGS NE
700 PM CST SUN FEB 19 2017

NOTE: "FAIR" INDICATES FEW OR NO CLOUDS BELOW 12,000 FEET WITH NO
SIGNIFICANT WEATHER AND/OR OBSTRUCTIONS TO VISIBILITY.

...SOUTH CENTRAL NEBRASKA...

CITY           SKY/WX    TMP DP  RH WIND       PRES   REMARKS
GRAND ISLAND   CLOUDY    57  50  77 S17       29.75R
HASTINGS       CLOUDY    58  48  69 S16G22    29.77R
KEARNEY        CLOUDY    61  46  59 S21G26    29.73R
ORD            CLOUDY    63  44  50 SE12      29.68R
YORK           MOCLDY    57  50  77 S14G21    29.78R
AURORA         CLOUDY    56  50  79 S18       29.77R
LEXINGTON      CLOUDY    64  44  49 SE20      29.68R
HOLDREGE       PTCLDY    59  46  61 SE18G24   29.72R
HEBRON         CLOUDY    57  50  77 S13       29.80S

...NEBRASKA PANHANDLE...

CITY           SKY/WX    TMP DP  RH WIND       PRES   REMARKS
CHADRON        CLOUDY    55  33  43 S10       29.56S
ALLIANCE       CLOUDY    49  33  54 E7        29.57F
SCOTTSBLUFF    CLOUDY    53  31  42 NE9       29.56F
SIDNEY         CLOUDY    55  35  47 S13       29.58S

...WESTERN AND NORTH CENTRAL NEBRASKA...

CITY           SKY/WX    TMP DP  RH WIND       PRES   REMARKS
VALENTINE      CLOUDY    58  39  49 S8        29.58F
AINSWORTH      PTCLDY    58  45  61 S13       29.62S
ONEILL         CLOUDY    63  45  51 S15       29.66R
BROKEN BOW     CLOUDY    63  45  51 S12       29.67S
IMPERIAL       CLOUDY    64  36  35 S30       29.60F
NORTH PLATTE   MOCLDY    58  49  72 SE8       29.63R
MCCOOK         MOCLDY    68  48  48 S17       29.66R

...EASTERN NEBRASKA...

CITY           SKY/WX    TMP DP  RH WIND       PRES   REMARKS
NORFOLK        PTCLDY    60  48  64 S16       29.72R
SO SIOUX CITY  CLOUDY    61  51  70 SE10      29.75R
TEKAMAH        CLOUDY    56  49  77 SE10      29.77S
COLUMBUS       PTCLDY    61  50  67 S12       29.76S
ALBION         CLOUDY    60  49  66 S10       29.72S
OMAHA EPPLEY   CLOUDY    63  51  65 SE13      29.80S
OFFUTT AFB     CLOUDY    63  54  74 S9        29.81R
MILLARD        CLOUDY    64  53  68 SE7       29.80R
LINCOLN        CLOUDY    60  51  72 S15       29.81R
NEBRASKA CITY  PTCLDY    62  48  62 S10       29.83S
BEATRICE       PTCLDY    58  52  80 S13       29.82R
FALLS CITY     PTCLDY    62  54  74 S9        29.85R

...NORTHERN KANSAS...

CITY           SKY/WX    TMP DP  RH WIND       PRES   REMARKS
GOODLAND       CLOUDY    63  31  30 SW17G26   29.69R
HILL CITY      CLOUDY    62  52  69 SE12G23   29.72R
NORTON         CLEAR     63  45  51 SE16G22   29.70S
PHILLIPSBURG   CLEAR     63  50  63 SE13G20   29.74S
SMITH CENTER   CLEAR     59  50  72 SE20G25   29.77S
HAYS           PTCLDY    57  53  86 S12       29.77R
RUSSELL        PTCLDY    57  52  83 SE18      29.75F
CONCORDIA      CLEAR     59  52  77 S17       29.81R
SALINA         PTCLDY    61  53  75 SE10      29.82F
TOPEKA         MOCLDY    58  51  78 E5        29.86S



USA.gov is the U.S. government's official web portal to all federal, state and local government web resources and services.